Time,TemperatureF,DewpointF,PressureIn,WindDirection,WindDirectionDegrees,WindSpeedMPH,WindSpeedGustMPH,Humidity,HourlyPrecipIn,Conditions,Clouds,dailyrainin,SoftwareType,DateUTC
2015-01-30 00:00:00,56.9,54.0,30.14,SE,135,0.0,0.0,89,0.00,,,0.00,Rainwise IP-100,2015-01-30 05:00:00,
2015-01-30 00:05:00,57.3,53.0,30.14,SE,135,0.0,0.0,88,0.00,,,0.00,Rainwise IP-100,2015-01-30 05:05:00,
2015-01-30 00:10:00,57.6,54.0,30.14,SE,135,0.0,0.0,87,0.00,,,0.00,Rainwise IP-100,2015-01-30 05:10:00,
2015-01-30 00:15:00,57.8,53.0,30.14,SE,135,0.0,0.0,86,0.00,,,0.00,Rainwise IP-100,2015-01-30 05:15:00,
2015-01-30 00:20:00,57.9,54.0,30.14,SE,135,0.0,0.0,86,0.00,,,0.00,Rainwise IP-100,2015-01-30 05:20:00,
2015-01-30 00:25:00,58.1,54.0,30.14,SE,135,0.0,0.0,86,0.00,,,0.00,Rainwise IP-100,2015-01-30 05:25:00,
2015-01-30 00:30:00,58.3,54.0,30.14,SE,135,0.0,0.0,85,0.00,,,0.00,Rainwise IP-100,2015-01-30 05:30:00,
2015-01-30 00:35:00,58.3,53.0,30.14,SE,135,0.0,0.0,84,0.00,,,0.00,Rainwise IP-100,2015-01-30 05:35:00,
2015-01-30 00:40:00,58.3,53.0,30.14,SE,135,0.0,0.0,84,0.00,,,0.00,Rainwise IP-100,2015-01-30 05:40:00,
2015-01-30 00:45:00,58.3,53.0,30.14,SE,135,0.0,0.0,84,0.00,,,0.00,Rainwise IP-100,2015-01-30 05:45:00,
2015-01-30 00:50:00,58.3,53.0,30.14,SE,135,0.0,0.0,84,0.00,,,0.00,Rainwise IP-100,2015-01-30 05:50:00,
2015-01-30 00:55:00,58.3,53.0,30.14,SE,135,0.0,0.0,84,0.00,,,0.00,Rainwise IP-100,2015-01-30 05:55:00,
2015-01-30 01:00:00,58.3,53.0,30.13,SE,135,0.0,0.0,84,0.00,,,0.00,Rainwise IP-100,2015-01-30 06:00:00,
2015-01-30 01:05:00,58.2,53.0,30.14,SE,135,0.0,0.0,84,0.00,,,0.00,Rainwise IP-100,2015-01-30 06:05:00,
2015-01-30 01:10:00,58.2,53.0,30.13,SE,135,0.0,0.0,84,0.00,,,0.00,Rainwise IP-100,2015-01-30 06:10:00,
2015-01-30 01:15:00,58.1,53.0,30.13,SE,135,0.0,0.0,84,0.00,,,0.00,Rainwise IP-100,2015-01-30 06:15:00,
2015-01-30 01:20:00,57.8,53.0,30.13,SE,135,0.0,0.0,84,0.00,,,0.00,Rainwise IP-100,2015-01-30 06:20:00,
2015-01-30 01:25:00,57.8,53.0,30.13,SE,135,0.0,0.0,86,0.00,,,0.00,Rainwise IP-100,2015-01-30 06:25:00,
2015-01-30 01:30:00,57.7,53.0,30.13,SE,135,0.0,0.0,85,0.00,,,0.00,Rainwise IP-100,2015-01-30 06:30:00,
2015-01-30 01:35:00,57.4,53.0,30.12,SE,135,0.0,0.0,85,0.00,,,0.00,Rainwise IP-100,2015-01-30 06:35:00,
2015-01-30 01:40:00,56.9,53.0,30.13,SE,135,0.0,0.0,87,0.00,,,0.00,Rainwise IP-100,2015-01-30 06:40:00,
2015-01-30 01:45:00,56.7,53.0,30.12,SE,135,0.0,0.0,87,0.00,,,0.00,Rainwise IP-100,2015-01-30 06:45:00,
2015-01-30 01:50:00,56.6,53.0,30.12,SE,135,0.0,0.0,88,0.00,,,0.00,Rainwise IP-100,2015-01-30 06:50:00,
2015-01-30 01:55:00,56.7,53.0,30.12,SE,135,0.0,0.0,87,0.00,,,0.00,Rainwise IP-100,2015-01-30 06:55:00,
2015-01-30 02:00:00,56.9,53.0,30.12,SE,135,0.0,0.0,87,0.00,,,0.00,Rainwise IP-100,2015-01-30 07:00:00,
2015-01-30 02:05:00,56.9,53.0,30.12,SE,135,0.0,0.0,87,0.00,,,0.00,Rainwise IP-100,2015-01-30 07:05:00,
2015-01-30 02:10:00,56.9,53.0,30.12,SE,135,0.0,0.0,87,0.00,,,0.00,Rainwise IP-100,2015-01-30 07:10:00,
2015-01-30 02:15:00,56.8,53.0,30.12,SE,135,0.0,0.0,87,0.00,,,0.00,Rainwise IP-100,2015-01-30 07:15:00,
2015-01-30 02:20:00,56.7,53.0,30.12,SE,135,0.0,0.0,87,0.00,,,0.00,Rainwise IP-100,2015-01-30 07:20:00,
2015-01-30 02:25:00,56.7,53.0,30.12,SE,135,0.0,0.0,87,0.00,,,0.00,Rainwise IP-100,2015-01-30 07:25:00,
2015-01-30 02:30:00,56.5,53.0,30.11,SE,135,0.0,0.0,87,0.00,,,0.00,Rainwise IP-100,2015-01-30 07:30:00,
2015-01-30 02:35:00,56.2,52.0,30.11,SE,135,0.0,0.0,87,0.00,,,0.00,Rainwise IP-100,2015-01-30 07:35:00,
2015-01-30 02:40:00,55.9,53.0,30.11,SE,135,0.0,0.0,88,0.00,,,0.00,Rainwise IP-100,2015-01-30 07:40:00,
2015-01-30 02:45:00,55.5,53.0,30.11,SE,135,0.0,0.0,88,0.00,,,0.00,Rainwise IP-100,2015-01-30 07:45:00,
2015-01-30 02:50:00,55.1,53.0,30.11,SE,135,0.0,0.0,90,0.00,,,0.00,Rainwise IP-100,2015-01-30 07:50:00,
2015-01-30 02:55:00,54.9,53.0,30.11,SE,135,0.0,0.0,90,0.00,,,0.00,Rainwise IP-100,2015-01-30 07:55:00,
2015-01-30 03:00:00,54.9,53.0,30.11,SE,135,0.0,0.0,91,0.00,,,0.00,Rainwise IP-100,2015-01-30 08:00:00,
2015-01-30 03:05:00,55.3,52.0,30.11,SE,135,0.0,2.0,89,0.00,,,0.00,Rainwise IP-100,2015-01-30 08:05:00,
2015-01-30 03:10:00,55.9,52.0,30.10,SE,135,0.0,2.0,86,0.00,,,0.00,Rainwise IP-100,2015-01-30 08:10:00,
2015-01-30 03:15:00,55.9,52.0,30.10,SE,135,0.0,2.0,86,0.00,,,0.00,Rainwise IP-100,2015-01-30 08:15:00,
2015-01-30 03:20:00,55.9,52.0,30.10,SE,135,0.0,2.0,86,0.00,,,0.00,Rainwise IP-100,2015-01-30 08:20:00,
2015-01-30 03:25:00,55.6,52.0,30.10,SE,135,0.0,0.0,86,0.00,,,0.00,Rainwise IP-100,2015-01-30 08:25:00,
2015-01-30 03:30:00,55.0,51.0,30.10,SE,135,0.0,0.0,87,0.00,,,0.00,Rainwise IP-100,2015-01-30 08:30:00,
2015-01-30 03:35:00,54.4,50.0,30.10,SE,135,0.0,0.0,87,0.00,,,0.00,Rainwise IP-100,2015-01-30 08:35:00,
2015-01-30 03:40:00,53.7,50.0,30.10,SE,135,0.0,0.0,88,0.00,,,0.00,Rainwise IP-100,2015-01-30 08:40:00,
2015-01-30 03:45:00,52.9,50.0,30.09,SE,135,0.0,0.0,90,0.00,,,0.00,Rainwise IP-100,2015-01-30 08:45:00,
2015-01-30 03:50:00,52.5,50.0,30.09,SE,135,0.0,0.0,91,0.00,,,0.00,Rainwise IP-100,2015-01-30 08:50:00,
2015-01-30 03:55:00,52.4,50.0,30.09,SE,135,0.0,2.0,93,0.00,,,0.00,Rainwise IP-100,2015-01-30 08:55:00,
2015-01-30 04:00:00,52.4,50.0,30.08,SE,135,1.0,2.0,94,0.00,,,0.00,Rainwise IP-100,2015-01-30 09:00:00,
2015-01-30 04:05:00,52.4,50.0,30.08,SE,135,0.0,2.0,94,0.00,,,0.00,Rainwise IP-100,2015-01-30 09:05:00,